This is the latest recevied weather packets stored in our database for station/object N1YZ. If no packets are shown the sender has not sent any weather packets the latest 10 day(s).
| Time | Temp. | Humidity | Pressure | Rain* | Wind** | Luminosity | Snow |
|---|---|---|---|---|---|---|---|
| 1787966220 | 26.67° C | 68% | 1035.7 hPa | 0 mm | - | 0 W/m² | - |
| 1787965915 | 27.22° C | 68% | 1035.4 hPa | 0 mm | - | 0 W/m² | - |
| 1787965610 | 27.22° C | 67% | 1035.3 hPa | 0 mm | - | 0 W/m² | - |
| 1787965310 | 27.22° C | 67% | 1035.2 hPa | 0 mm | - | 0 W/m² | - |
| 1787965008 | 27.22° C | 67% | 1035.6 hPa | 0 mm | - | 0 W/m² | - |
| 1787964703 | 27.22° C | 67% | 1035.4 hPa | 0 mm | - | 0 W/m² | - |
| 1787964403 | 27.22° C | 67% | 1035.2 hPa | 0 mm | - | 0 W/m² | - |
| 1787964098 | 27.78° C | 67% | 1035 hPa | 0 mm | - | 0 W/m² | - |
| 1787963792 | 27.22° C | 67% | 1035.2 hPa | 0 mm | - | 0 W/m² | - |
| 1787963487 | 27.78° C | 67% | 1035.3 hPa | 0 mm | - | 0 W/m² | - |
| 1787963182 | 27.78° C | 66% | 1035.2 hPa | 0 mm | - | 0 W/m² | - |
| 1787962880 | 27.78° C | 67% | 1035.1 hPa | 0 mm | - | 1 W/m² | - |
| 1787962580 | 27.78° C | 66% | 1034.8 hPa | 0 mm | - | 1 W/m² | - |
| 1787962274 | 28.33° C | 65% | 1035.1 hPa | 0 mm | - | 2 W/m² | - |
| 1787961969 | 28.33° C | 65% | 1035 hPa | 0 mm | - | 3 W/m² | - |
| 1787961663 | 28.33° C | 64% | 1035.2 hPa | 0 mm | - | 4 W/m² | - |
| 1787961357 | 28.89° C | 65% | 1035 hPa | 0 mm | - | 5 W/m² | - |
| 1787961063 | 28.89° C | 64% | 1035.1 hPa | 0 mm | - | 6 W/m² | - |
| 1787960751 | 28.89° C | 64% | 1034.5 hPa | 0 mm | - | 9 W/m² | - |
| 1787960445 | 29.44° C | 64% | 1034.5 hPa | 0 mm | - | 14 W/m² | - |
| 1787960140 | 29.44° C | 63% | 1035 hPa | 0 mm | - | 17 W/m² | - |
| 1787959840 | 29.44° C | 63% | 1034.6 hPa | 0 mm | - | 19 W/m² | - |
| 1787959535 | 30° C | 62% | 1034.8 hPa | 0 mm | - | 28 W/m² | - |
| 1787959234 | 30° C | 61% | 1034.7 hPa | 0 mm | - | 29 W/m² | - |
| 1787958929 | 30° C | 62% | 1034.6 hPa | 0 mm | - | 32 W/m² | - |
* Rain latest hour (hover to see other rain measurements)
** Current wind speed in m/s (hover to see current wind gust speed)